DELTA 1 DEB, 14528

Orbit data source: Space-Track

DELTA 1 DEB, 14528 is space debris in LEO originally from a launch on Thu, 14 Jul 1977 UTC launched from the Air Force Eastern Test Range (AFETR). Debris objects in space refer to the collection of defunct objects orbiting the Earth. Examples of debris include non-operational satellites, rocket bodies, and fragments generated from explosions, collisions, or faulty payload assembly.

Loading next visibility...
Identifier
14528, 1977-065FP
Orbit
LEO
Country
Flag of USUS
Related business
Manufacturer
Unknown
Mission
Spacecraft
Bus & Motor
Unknown
Mass
Unknown
Launch date (UTC)
1977-07-14 (48 years ago)
Launch vehicle
Unknown
Launch site
Air Force Eastern Test Range (AFETR)
Object type
Payload
Rocket body
Debris
Shape & HBR
Unknown
Radar Cross Section
Small (<0.1 m²)

Expand to show TLE details & history
Last TLE update: 2 days ago

TLE from 2 days ago
0 DELTA 1 DEB
1 14528U 77065FP  25259.52405286 -.00000070  00000-0 -81296-3 0  9998
2 14528  28.0731 190.0828 0316109 201.3810 157.3227 12.46530392541929
Epoch: 2025-09-16T12:34Z
TLE epoch observation values (Epoch: 2025-09-16T12:34:38.167Z)
Latitude
-0°
Longitude
5.71065°
Altitude
1,707.714 km
Speed
6.921 km/s
True Right ascension
12h 40m 19s
True Declination
0° 00' 00"
Sunlit
Object was in daylight at epoch
Visualization orbit readout
Latitude
Unknown
Longitude
Unknown
Altitude
Unknown
Speed
Unknown
Apparent Right ascension
Unknown
Apparent Declination
Unknown
Sunlit
N/A
Visualization observer readout
Local Sidereal Time
02:57:38
Azimuth
Unknown
Elevation
Unknown
Doppler factor
Unknown
Orbital elements
Apogee altitude
1,731.287 km
Perigee altitude
1,234.305 km
Semi-major axis
7,860.933 km
Eccentricity
0.03161
Inclination
28.0731°
RAAN
190.0828°
Arg. of periapsis
201.381°
True anomaly
158.66994°
Mean anomaly
157.3227°
Eccentric anomaly
158.00114°
Mean motion
3.1141 °/min
Orbital period
115.6 mins
BSTAR
-0.00081296
Loading maneuver chart data...
Computing Atmospheric mass density...

Documentation

Showing up to 5 results
|